Regional Weather Roundup
Issued by NWS

Home | Current Version | Previous Version | Graphics & Text | Print | Product List | Glossary On
Versions: 1 2 3 4 5 6 7 8 9 10 11 12 13 14 15 16 17 18 19 20 21 22 23 24 25 26 27
000
ASUS45 KBOU 191006
RWRCO

WEATHER ROUNDUP FOR COLORADO
NATIONAL WEATHER SERVICE DENVER/BOULDER CO
400 AM MDT SAT APR 19 2014

NOTE: "FAIR" INDICATES FEW OR NO CLOUDS BELOW 12000 FEET WITH NO
SIGNIFICANT WEATHER AND/OR OBSTRUCTIONS TO VISIBILITY.

COZ001>005-013-030-031-191100-
...NORTHWEST COLORADO...

CITY           SKY/WX    TMP DP  RH WIND       PRES   REMARKS
CRAIG          PTCLDY    37  32  82 CALM      30.05R
HAYDEN         PTCLDY    41  30  65 CALM      30.08R
MEEKER         CLOUDY    52  31  44 W7        30.06R
MOUNT WERNER   CLOUDY    37  23  56 SW10      30.21S
STEAMBOAT SPGS PTCLDY    40  27  59 CALM      30.07R
WALDEN         MOCLDY    34  25  69 CALM      30.10R
$$

COZ006>008-011-191100-
...WEST CENTRAL VALLEYS...

CITY           SKY/WX    TMP DP  RH WIND       PRES   REMARKS
GRAND JUNCTION CLOUDY    55  36  48 N6        30.01S
MONTROSE       CLOUDY    56  33  42 W9        30.07R
EAGLE          MOCLDY    46  36  66 E6        30.10R
RIFLE          CLOUDY    50  34  54 CALM      30.04R
DELTA          CLOUDY    60  34  37 W12       30.03S
NUCLA          LGT RAIN  48  41  76 S7        30.14R
$$

COZ017>023-064>068-191100-
...SOUTHWEST COLORADO...

CITY           SKY/WX    TMP DP  RH WIND       PRES   REMARKS
DURANGO        LGT RAIN  45  43  93 CALM      30.15R
CORTEZ         LGT RAIN  47  46  97 E7        30.12S
PAGOSA SPRINGS DRIZZLE   45  41  86 W8        30.17S
TELLURIDE      CLOUDY    41  34  75 S3        30.18R
WOLF CREEK PAS HVY SNOW  28  28 100 SW18G28   30.26S VSB<1/4 WCI  16
$$

COZ009-010-012-014-032>034-037-058>063-191100-
...CENTRAL COLORADO...

CITY           SKY/WX    TMP DP  RH WIND       PRES   REMARKS
ASPEN          MOCLDY    37  29  72 SW6       30.11R
BUENA VISTA    MOCLDY    41  27  57 NW9       30.10S
COPPER MTN     CLOUDY    34  23  64 SW10      30.25F WCI  26
BERTHOUD PASS  CLOUDY    28  19  69 NW14      30.27S WCI  17
COTTONWOOD PAS MOCLDY    45  25  45 W13G20    30.17S
GUNNISON       MOCLDY    37  27  65 W3        30.15R
KREMMLING      PTCLDY    37  28  70 E6        30.11R
LEADVILLE      MOCLDY    32  22  66 NE7       30.17F WCI  26
MONARCH PASS   MOCLDY    32  23  69 W16       30.35S WCI  21
SALIDA         MOCLDY    44  28  54 CALM      30.16R
SUNLIGHT       CLOUDY    36  32  87 CALM      30.23S
WILKERSON PASS CLOUDY    36  19  51 W8        30.25R
$$

COZ069>075-191100-
...SAN LUIS VALLEY/SANGRE DE CRISTO MOUNTAINS...

CITY           SKY/WX    TMP DP  RH WIND       PRES   REMARKS
ALAMOSA        CLOUDY    46  33  60 S15       30.13R
LA VETA PASS   CLOUDY    36  28  75 SW15G24   30.21R
SAGUACHE       CLOUDY    41  23  48 CALM      30.11R
$$

COZ035-036-038>040-191100-
...NORTHERN COLORADO FRONT RANGE...

CITY           SKY/WX    TMP DP  RH WIND       PRES   REMARKS
DENVER INTL AP CLOUDY    53  29  39 SW10      29.93R
DMNS CITY PARK   N/A     55  28  35 S5        29.93R
AURORA         MOCLDY    52  28  40 SW9       29.94S
FRONT RANGE AP NOT AVBL
ERIE MUNI ARPT CLOUDY    59  28  30 SW7       29.91S
BOULDER MUN AP CLOUDY    61  28  29 W3        29.93R
CENTENNIAL     CLOUDY    52  28  39 SW10      29.95S
BROOMFIELD     CLOUDY    59  28  31 W14G20    29.95S
FORT COLLINS   CLOUDY    50  34  53 CALM      29.94R
LONGMONT       CLOUDY    55  33  42 E5        29.94R
$$

COZ041-046-047-076>085-087-088-191100-
...PIKES PEAK/PALMER DIVIDE AND SOUTHERN FOOTHILLS...

CITY           SKY/WX    TMP DP  RH WIND       PRES   REMARKS
COLO. SPRINGS  CLOUDY    49  30  48 N10       29.98R
A. F. ACADEMY  CLOUDY    57  22  25 VRB7      30.00R
ELLICOTT       NOT AVBL
FALCON         CLOUDY    48  26  42 NW7       30.02R
FORT CARSON    MOCLDY    49  30  47 W6        29.96R
LIMON          CLOUDY    40  36  86 N6        29.93R
MONUMENT HILL  CLOUDY    46  28  49 W8        30.01S
TRINIDAD       MOCLDY    54  38  54 SW14      30.00R
$$

COZ042>045-048>051-090-091-191100-
...NORTHEAST COLORADO...

CITY           SKY/WX    TMP DP  RH WIND       PRES   REMARKS
GREELEY ARPT   CLOUDY    45  30  57 N3        29.92R
AKRON          CLOUDY    52  37  56 NW14      29.88S
BURLINGTON     CLOUDY    48  40  73 S9        29.86S
WRAY           CLOUDY    54  43  66 W5        29.85R
STERLING       CLOUDY    46  43  87 CALM      29.87R
HOLYOKE        MOCLDY    50  43  76 CALM      29.85S
FORT MORGAN    CLOUDY    49  34  56 CALM      29.91R
$$

COZ086-089-092>099-191100-
...SOUTHEAST COLORADO...

CITY           SKY/WX    TMP DP  RH WIND       PRES   REMARKS
PUEBLO         MOCLDY    49  38  65 N6        29.91R
LA JUNTA       MOCLDY    59  36  42 SW20      29.89R
LAMAR          CLOUDY    60  39  45 CALM      29.86R
SPRINGFIELD      N/A     52  42  69 S20       29.96R
$$



USA.gov is the U.S. government's official web portal to all federal, state and local government web resources and services.